sat.trackr.live / text

‹ back to catalog

STARLINK-34649

NORAD 64798 · 2025-150J

PAYLOAD ACTIVE UNKNOWN

§ Identity

Operator
Country
US
Launch date
2025-07-16
Launch site
AFWTR
Launch vehicle
Mass (kg)
RCS (m²)

Purposes: comms

External: N2YO · Heavens-Above · Gunter

§ Orbital elements

Epoch: 2026-05-24T20:32:40.976448Z

Period
96.11 min
Inclination
70.0003°
Eccentricity
0.0003000
Mean motion
14.98336460 rev/d
Perigee alt
570.0 km
Apogee alt
574.1 km
Semi-major
6,950.2 km
B*
2.4733e-4
RAAN
302.5014°
Arg perigee
265.7471°
Mean anomaly
94.3345°
Rev number
4,881

§ Raw data

STARLINK-346491 64798U 25150J   26144.85602982  .00002860  00000+0  24733-3 0  99912 64798  70.0003 302.5014 0003000 265.7471  94.3345 14.98336460 48819

JSON: /api/v1/satellites/64798 · /tle

For live sub-satellite position, see the globe view (requires WebGL).

§ Visibility from observer

Set your observer location to see the next 7 days of passes ≥ 10°. The values pass through the URL so the page stays shareable.

No JS? Fill the form by hand. The geolocation button needs JavaScript.